Location: *
(50.8667°S, 179.2667°W)
Time: 18:22:18
(UTC+00:00)

Cosmos 2074 Rocket - Pass Details

Date: 02 October 2023
Orbit: 967 x 986 km, 82.9° (Epoch: 10 December)

Event Time Altitude Azimuth Distance (km) Brightness Sun altitude
Rises 16:31:58 0° 190° (S) 3,724 7.1 -8.7°
Reaches altitude 10° 16:34:31 10° 188° (S) 2,768 6.5 -8.3°
Maximum altitude 16:40:53 78° 101° (ESE) 1,012 4.3 -7.4°
Drops below altitude 10° 16:47:09 10° 14° (NNE) 2,723 6.4 -6.4°
Sets 16:49:38 0° 12° (NNE) 3,661 7.0 -6.0°
